Flag for India Weather past 2 weeks in Tirunelveli, Tamil Nadu, India

Now
79 °F

Haze.


Feels Like: 82 °F
Forecast: 77 / 97 °F
Wind: 5 mph from Northwest

Location: Thiruvananthapuram

Current Time: Sep 21, 2014 at 8:07:38 AM

Latest Report: Sep 21, 2014 at 6:40 AM


Visibility: 2 mi

Pressure: 29.77 "Hg

Humidity: 84%

Dew point: 73 °F

Location of TirunelveliLocation

Historic Weather in Tirunelveli — Graph

°F

Tirunelveli temperature yesterday

Maximum temperature yesterday: 88 °F (at 1:10 PM)
Minimum temperature yesterday: 77 °F (at 3:40 AM)
Average temperature yesterday: 84 °F

Past Weeks' High & Low Weather Summary

 TemperatureHumidityPressure
High90 °F (Sep 10, 3:40 PM)94% (Sep 12, 3:40 AM)29.89 "Hg (Sep 12, 3:40 AM)
Low77 °F (Sep 10, 5:10 AM)62% (Sep 13, 12:10 PM)29.68 "Hg (Sep 17, 2:10 PM)
Average83 °F79%29.81 "Hg
* Reported Sep 6 8:10 AM — Sep 21 6:40 AM, Tirunelveli, Weather by CustomWeather, © 2014

Note: Actual official high and low records may vary slightly from our data, if they occured in-between our weather recording intervals... More about our weather records

Advertising

Tirunelveli weather history for previous 24 hours

 ConditionsComfort  
Time TempWeatherWind HumidityBarometerVisibility
6:40 AM
Sep 21
79 °FHaze.5 mph84%29.77 "Hg2 mi
6:10 AM79 °FHaze.6 mph84%29.77 "Hg2 mi
5:40 AM79 °FHaze.5 mph84%29.74 "Hg2 mi
5:10 AM79 °FHaze.3 mph84%29.74 "Hg2 mi
4:10 AM79 °FHaze.6 mph84%29.74 "Hg2 mi
3:40 AM79 °FHaze.6 mph84%29.74 "Hg2 mi
3:10 AM81 °FHaze.5 mph79%29.74 "Hg2 mi
1:40 AM81 °FHaze.5 mph79%29.77 "Hg2 mi
1:10 AM81 °FHaze.5 mph79%29.77 "Hg2 mi
12:10 AM81 °FHaze.6 mph84%29.80 "Hg2 mi
11:40 PM
Sep 20
82 °FHaze.6 mph79%29.83 "Hg2 mi
11:10 PM82 °FHaze.6 mph79%29.83 "Hg2 mi
6:40 PM84 °FHaze.9 mph79%29.74 "Hg3 mi
6:10 PM84 °FHaze.9 mph79%29.74 "Hg3 mi
5:40 PM84 °FHaze.12 mph79%29.71 "Hg3 mi
4:40 PM86 °FPassing clouds.12 mph75%29.71 "Hg4 mi
4:10 PM88 °FPassing clouds.12 mph70%29.68 "Hg4 mi
3:40 PM88 °FPassing clouds.14 mph70%29.68 "Hg4 mi
3:10 PM88 °FPassing clouds.14 mph70%29.71 "HgN/A
2:40 PM88 °FPassing clouds.14 mph70%29.71 "Hg4 mi
2:10 PM88 °FPassing clouds.9 mph70%29.71 "Hg4 mi
1:40 PM88 °FScattered clouds.9 mph70%29.74 "Hg4 mi
1:10 PM88 °FScattered clouds.12 mph70%29.74 "Hg4 mi
12:40 PM86 °FScattered clouds.14 mph75%29.77 "Hg4 mi
12:10 PM86 °FScattered clouds.14 mph75%29.80 "Hg4 mi
11:40 AM86 °FScattered clouds.12 mph75%29.80 "Hg3 mi
11:10 AM86 °FScattered clouds.12 mph75%29.83 "Hg3 mi
10:40 AM86 °FScattered clouds.9 mph75%29.83 "Hg3 mi
10:10 AM86 °FScattered clouds.7 mph75%29.86 "Hg3 mi
9:40 AM86 °FHaze.7 mph75%29.86 "Hg3 mi
9:10 AM86 °FHaze.8 mph70%29.86 "Hg3 mi
8:10 AM81 °FHaze.6 mph84%29.83 "Hg2 mi
Weather by CustomWeather, © 2014

See weather overviewHow to use our weather pages